Time,TemperatureF,DewpointF,PressureIn,WindDirection,WindDirectionDegrees,WindSpeedMPH,WindSpeedGustMPH,Humidity,HourlyPrecipIn,Conditions,Clouds,dailyrainin,SolarRadiationWatts/m^2,SoftwareType,DateUTC
2013-07-31 00:08:00,64.3,63.0,30.05,South,178,0.0,0.0,96,0.01,,,0.00,0,weatherlink.com 1.10,2013-07-31 05:08:00,
2013-07-31 00:23:00,64.0,63.0,30.05,South,178,0.0,0.0,96,0.00,,,0.00,0,weatherlink.com 1.10,2013-07-31 05:23:00,
2013-07-31 00:38:00,63.8,63.0,30.05,South,169,0.0,1.0,96,0.00,,,0.00,0,weatherlink.com 1.10,2013-07-31 05:38:00,
2013-07-31 00:53:00,64.0,63.0,30.04,South,169,0.0,0.0,96,0.00,,,0.00,0,weatherlink.com 1.10,2013-07-31 05:53:00,
2013-07-31 01:08:00,63.9,63.0,30.04,East,82,0.0,2.0,96,0.01,,,0.01,0,weatherlink.com 1.10,2013-07-31 06:08:00,
2013-07-31 01:23:00,64.0,63.0,30.04,East,82,0.0,0.0,96,0.02,,,0.02,0,weatherlink.com 1.10,2013-07-31 06:23:00,
2013-07-31 01:38:00,63.7,63.0,30.04,East,82,0.0,2.0,96,0.03,,,0.03,0,weatherlink.com 1.10,2013-07-31 06:38:00,
2013-07-31 01:53:00,63.7,63.0,30.04,East,82,0.0,1.0,96,0.04,,,0.04,0,weatherlink.com 1.10,2013-07-31 06:53:00,
2013-07-31 02:08:00,63.7,63.0,30.04,East,82,0.0,1.0,96,0.04,,,0.05,0,weatherlink.com 1.10,2013-07-31 07:08:00,
2013-07-31 02:23:00,63.8,63.0,30.04,East,82,0.0,2.0,97,0.04,,,0.06,0,weatherlink.com 1.10,2013-07-31 07:23:00,
2013-07-31 02:38:00,63.8,63.0,30.03,East,84,0.0,3.0,97,0.05,,,0.08,0,weatherlink.com 1.10,2013-07-31 07:38:00,
2013-07-31 02:53:00,63.6,63.0,30.02,SE,124,0.0,2.0,97,0.05,,,0.09,0,weatherlink.com 1.10,2013-07-31 07:53:00,
2013-07-31 03:08:00,63.8,63.0,30.02,NE,52,2.0,3.0,97,0.05,,,0.10,0,weatherlink.com 1.10,2013-07-31 08:08:00,
2013-07-31 03:23:00,63.9,63.0,30.01,ESE,107,0.0,2.0,97,0.03,,,0.10,0,weatherlink.com 1.10,2013-07-31 08:23:00,
2013-07-31 03:38:00,63.9,63.0,30.01,South,186,0.0,3.0,97,0.02,,,0.10,0,weatherlink.com 1.10,2013-07-31 08:38:00,
2013-07-31 03:53:00,63.9,63.0,30.01,South,183,0.0,1.0,97,0.01,,,0.10,0,weatherlink.com 1.10,2013-07-31 08:53:00,
2013-07-31 04:08:00,63.9,63.0,30.01,South,182,0.0,1.0,97,0.00,,,0.10,0,weatherlink.com 1.10,2013-07-31 09:08:00,
2013-07-31 04:23:00,64.1,63.0,30.01,South,182,0.0,1.0,97,0.00,,,0.10,0,weatherlink.com 1.10,2013-07-31 09:23:00,
2013-07-31 04:38:00,64.1,63.0,30.01,ENE,63,0.0,2.0,97,0.00,,,0.10,0,weatherlink.com 1.10,2013-07-31 09:38:00,
2013-07-31 04:53:00,64.1,63.0,30.02,NE,51,1.0,3.0,97,0.00,,,0.10,0,weatherlink.com 1.10,2013-07-31 09:53:00,
2013-07-31 05:08:00,64.1,63.0,30.02,ENE,58,0.0,2.0,97,0.01,,,0.11,0,weatherlink.com 1.10,2013-07-31 10:08:00,
2013-07-31 05:23:00,64.1,63.0,30.01,NE,55,1.0,5.0,97,0.05,,,0.15,0,weatherlink.com 1.10,2013-07-31 10:23:00,
2013-07-31 05:38:00,64.1,63.0,30.01,ENE,66,1.0,3.0,97,0.08,,,0.18,0,weatherlink.com 1.10,2013-07-31 10:38:00,
2013-07-31 05:53:00,64.0,63.0,30.02,NE,36,0.0,2.0,97,0.08,,,0.18,0,weatherlink.com 1.10,2013-07-31 10:53:00,
2013-07-31 06:08:00,64.0,64.0,30.01,ENE,66,0.0,2.0,98,0.08,,,0.19,0,weatherlink.com 1.10,2013-07-31 11:08:00,
2013-07-31 06:24:00,64.0,64.0,30.02,ENE,65,1.0,1.0,98,0.04,,,0.19,0,weatherlink.com 1.10,2013-07-31 11:24:00,
2013-07-31 06:38:00,63.9,63.0,30.02,NE,47,0.0,3.0,97,0.01,,,0.19,5,weatherlink.com 1.10,2013-07-31 11:38:00,
2013-07-31 06:53:00,64.0,64.0,30.02,NE,56,2.0,3.0,98,0.01,,,0.19,14,weatherlink.com 1.10,2013-07-31 11:53:00,
2013-07-31 07:08:00,64.0,64.0,30.02,ENE,61,0.0,2.0,98,0.00,,,0.19,14,weatherlink.com 1.10,2013-07-31 12:08:00,
2013-07-31 07:23:00,64.0,64.0,30.02,ENE,74,0.0,3.0,98,0.00,,,0.19,16,weatherlink.com 1.10,2013-07-31 12:23:00,
2013-07-31 07:38:00,64.0,64.0,30.02,ENE,66,0.0,3.0,98,0.00,,,0.19,19,weatherlink.com 1.10,2013-07-31 12:38:00,
2013-07-31 07:53:00,63.9,63.0,30.02,North,350,2.0,3.0,98,0.00,,,0.19,25,weatherlink.com 1.10,2013-07-31 12:53:00,
2013-07-31 08:08:00,63.8,63.0,30.02,NE,49,2.0,3.0,98,0.00,,,0.19,28,weatherlink.com 1.10,2013-07-31 13:08:00,
2013-07-31 08:23:00,63.8,63.0,30.02,ENE,57,1.0,5.0,98,0.00,,,0.19,23,weatherlink.com 1.10,2013-07-31 13:23:00,
2013-07-31 08:38:00,63.7,63.0,30.02,ESE,115,1.0,3.0,98,0.00,,,0.19,65,weatherlink.com 1.10,2013-07-31 13:38:00,
2013-07-31 08:53:00,64.0,64.0,30.01,South,169,1.0,3.0,98,0.00,,,0.19,63,weatherlink.com 1.10,2013-07-31 13:53:00,
2013-07-31 09:09:00,64.3,64.0,30.00,ENE,71,1.0,3.0,98,0.00,,,0.19,116,weatherlink.com 1.10,2013-07-31 14:09:00,
2013-07-31 09:24:00,64.5,64.0,30.00,ENE,66,1.0,2.0,98,0.00,,,0.19,60,weatherlink.com 1.10,2013-07-31 14:24:00,
2013-07-31 09:39:00,64.6,64.0,30.01,NE,49,0.0,2.0,98,0.00,,,0.19,98,weatherlink.com 1.10,2013-07-31 14:39:00,
2013-07-31 09:54:00,64.7,64.0,30.01,NE,53,2.0,3.0,98,0.00,,,0.19,67,weatherlink.com 1.10,2013-07-31 14:54:00,
2013-07-31 10:09:00,64.6,64.0,30.01,NE,46,1.0,3.0,97,0.00,,,0.19,69,weatherlink.com 1.10,2013-07-31 15:09:00,
2013-07-31 10:24:00,64.7,64.0,30.01,NE,46,0.0,2.0,97,0.00,,,0.19,130,weatherlink.com 1.10,2013-07-31 15:24:00,
2013-07-31 10:39:00,65.4,65.0,30.00,East,91,0.0,3.0,97,0.00,,,0.19,193,weatherlink.com 1.10,2013-07-31 15:39:00,
2013-07-31 10:54:00,65.6,65.0,30.00,South,189,0.0,4.0,96,0.00,,,0.19,239,weatherlink.com 1.10,2013-07-31 15:54:00,
2013-07-31 11:09:00,66.0,65.0,30.00,NE,44,0.0,2.0,96,0.00,,,0.19,127,weatherlink.com 1.10,2013-07-31 16:09:00,
2013-07-31 11:24:00,66.0,65.0,29.99,NE,56,0.0,3.0,95,0.00,,,0.19,200,weatherlink.com 1.10,2013-07-31 16:24:00,
2013-07-31 11:39:00,66.4,65.0,29.99,NE,52,0.0,3.0,95,0.00,,,0.19,297,weatherlink.com 1.10,2013-07-31 16:39:00,
2013-07-31 11:54:00,66.6,65.0,29.99,NE,51,1.0,2.0,94,0.00,,,0.19,343,weatherlink.com 1.10,2013-07-31 16:54:00,
2013-07-31 12:09:00,67.4,65.0,29.98,ESE,119,0.0,2.0,92,0.00,,,0.19,475,weatherlink.com 1.10,2013-07-31 17:09:00,
2013-07-31 12:24:00,68.3,65.0,29.98,NE,56,0.0,4.0,90,0.00,,,0.19,578,weatherlink.com 1.10,2013-07-31 17:24:00,
2013-07-31 12:39:00,67.9,65.0,29.98,SSE,150,0.0,3.0,89,0.00,,,0.19,466,weatherlink.com 1.10,2013-07-31 17:39:00,
2013-07-31 12:54:00,67.9,65.0,29.98,ENE,59,2.0,4.0,90,0.00,,,0.19,452,weatherlink.com 1.10,2013-07-31 17:54:00,
2013-07-31 13:09:00,67.7,65.0,29.98,East,96,0.0,3.0,90,0.00,,,0.19,330,weatherlink.com 1.10,2013-07-31 18:09:00,
2013-07-31 13:24:00,68.2,65.0,29.98,SSW,192,0.0,4.0,89,0.00,,,0.19,427,weatherlink.com 1.10,2013-07-31 18:24:00,
2013-07-31 13:39:00,69.0,65.0,29.97,SE,141,0.0,3.0,88,0.00,,,0.19,357,weatherlink.com 1.10,2013-07-31 18:39:00,
2013-07-31 13:54:00,68.3,65.0,29.96,East,81,1.0,3.0,89,0.00,,,0.19,329,weatherlink.com 1.10,2013-07-31 18:54:00,
2013-07-31 14:09:00,68.5,64.0,29.96,ESE,105,1.0,2.0,86,0.00,,,0.19,385,weatherlink.com 1.10,2013-07-31 19:09:00,
2013-07-31 14:24:00,68.7,65.0,29.96,NE,53,0.0,2.0,88,0.00,,,0.19,278,weatherlink.com 1.10,2013-07-31 19:24:00,
2013-07-31 14:39:00,69.1,66.0,29.95,ESE,117,1.0,3.0,88,0.00,,,0.19,617,weatherlink.com 1.10,2013-07-31 19:39:00,
2013-07-31 14:54:00,71.2,67.0,29.94,East,98,0.0,3.0,86,0.00,,,0.19,751,weatherlink.com 1.10,2013-07-31 19:54:00,
2013-07-31 15:09:00,72.9,68.0,29.93,SSW,200,1.0,3.0,83,0.00,,,0.19,717,weatherlink.com 1.10,2013-07-31 20:09:00,
2013-07-31 15:24:00,72.0,66.0,29.93,ESE,111,1.0,5.0,82,0.00,,,0.19,742,weatherlink.com 1.10,2013-07-31 20:24:00,
2013-07-31 15:39:00,71.5,66.0,29.93,ENE,61,1.0,3.0,82,0.00,,,0.19,163,weatherlink.com 1.10,2013-07-31 20:39:00,
2013-07-31 15:54:00,70.2,66.0,29.92,ENE,76,0.0,3.0,86,0.00,,,0.19,628,weatherlink.com 1.10,2013-07-31 20:54:00,
2013-07-31 16:09:00,70.7,66.0,29.91,South,175,2.0,2.0,84,0.00,,,0.19,608,weatherlink.com 1.10,2013-07-31 21:09:00,
2013-07-31 16:24:00,70.9,67.0,29.91,SSE,163,1.0,2.0,86,0.00,,,0.19,559,weatherlink.com 1.10,2013-07-31 21:24:00,
2013-07-31 16:39:00,70.7,66.0,29.91,South,186,3.0,3.0,86,0.00,,,0.19,292,weatherlink.com 1.10,2013-07-31 21:39:00,
2013-07-31 16:55:00,70.7,67.0,29.91,South,184,1.0,2.0,87,0.00,,,0.19,163,weatherlink.com 1.10,2013-07-31 21:55:00,
2013-07-31 17:09:00,70.2,66.0,29.91,South,184,0.0,1.0,87,0.00,,,0.19,58,weatherlink.com 1.10,2013-07-31 22:09:00,
2013-07-31 17:24:00,70.1,67.0,29.90,South,184,0.0,2.0,88,0.00,,,0.19,58,weatherlink.com 1.10,2013-07-31 22:24:00,
2013-07-31 17:39:00,69.8,66.0,29.90,South,184,0.0,1.0,88,0.00,,,0.19,26,weatherlink.com 1.10,2013-07-31 22:39:00,
2013-07-31 17:54:00,69.1,66.0,29.89,South,184,0.0,1.0,89,0.00,,,0.19,12,weatherlink.com 1.10,2013-07-31 22:54:00,
2013-07-31 18:10:00,68.8,66.0,29.91,WNW,291,4.0,4.0,91,0.05,,,0.24,7,weatherlink.com 1.10,2013-07-31 23:10:00,
2013-07-31 18:25:00,68.2,66.0,29.91,WNW,284,0.0,2.0,92,0.06,,,0.25,12,weatherlink.com 1.10,2013-07-31 23:25:00,
2013-07-31 18:40:00,68.2,67.0,29.92,WNW,284,0.0,1.0,94,0.06,,,0.25,9,weatherlink.com 1.10,2013-07-31 23:40:00,
2013-07-31 18:55:00,68.4,67.0,29.91,WNW,284,0.0,1.0,95,0.06,,,0.25,42,weatherlink.com 1.10,2013-07-31 23:55:00,
2013-07-31 19:10:00,68.4,67.0,29.91,WNW,284,0.0,1.0,95,0.01,,,0.26,39,weatherlink.com 1.10,2013-08-01 00:10:00,
2013-07-31 19:25:00,68.2,67.0,29.91,WNW,284,0.0,0.0,95,0.01,,,0.26,14,weatherlink.com 1.10,2013-08-01 00:25:00,
2013-07-31 19:40:00,68.1,67.0,29.91,WNW,284,0.0,0.0,95,0.01,,,0.26,7,weatherlink.com 1.10,2013-08-01 00:40:00,
2013-07-31 19:55:00,67.7,66.0,29.91,WNW,284,0.0,0.0,95,0.01,,,0.26,5,weatherlink.com 1.10,2013-08-01 00:55:00,
2013-07-31 20:10:00,67.7,67.0,29.90,WNW,284,0.0,0.0,96,0.00,,,0.26,0,weatherlink.com 1.10,2013-08-01 01:10:00,
2013-07-31 20:25:00,67.5,66.0,29.90,WNW,284,0.0,0.0,96,0.00,,,0.26,0,weatherlink.com 1.10,2013-08-01 01:25:00,
2013-07-31 20:40:00,67.4,66.0,29.91,WNW,284,0.0,0.0,96,0.00,,,0.26,0,weatherlink.com 1.10,2013-08-01 01:40:00,
2013-07-31 20:55:00,67.1,66.0,29.92,WNW,287,0.0,0.0,96,0.00,,,0.26,0,weatherlink.com 1.10,2013-08-01 01:55:00,
2013-07-31 21:10:00,66.6,66.0,29.92,WNW,287,0.0,0.0,96,0.00,,,0.26,0,weatherlink.com 1.10,2013-08-01 02:10:00,
2013-07-31 21:25:00,66.2,65.0,29.92,WNW,287,0.0,0.0,96,0.00,,,0.26,0,weatherlink.com 1.10,2013-08-01 02:25:00,
2013-07-31 21:40:00,65.9,65.0,29.92,WNW,286,0.0,0.0,96,0.00,,,0.26,0,weatherlink.com 1.10,2013-08-01 02:40:00,
2013-07-31 21:55:00,65.7,65.0,29.92,WNW,286,0.0,0.0,96,0.00,,,0.26,0,weatherlink.com 1.10,2013-08-01 02:55:00,
2013-07-31 22:10:00,65.5,64.0,29.92,WNW,286,0.0,0.0,96,0.00,,,0.26,0,weatherlink.com 1.10,2013-08-01 03:10:00,
2013-07-31 22:25:00,65.3,64.0,29.92,WSW,246,0.0,0.0,96,0.00,,,0.26,0,weatherlink.com 1.10,2013-08-01 03:25:00,
2013-07-31 22:40:00,65.1,64.0,29.91,WNW,283,0.0,0.0,96,0.00,,,0.26,0,weatherlink.com 1.10,2013-08-01 03:40:00,
2013-07-31 22:55:00,64.7,64.0,29.92,WNW,283,0.0,0.0,96,0.00,,,0.26,0,weatherlink.com 1.10,2013-08-01 03:55:00,
2013-07-31 23:10:00,64.4,63.0,29.92,WNW,282,0.0,0.0,96,0.01,,,0.27,0,weatherlink.com 1.10,2013-08-01 04:10:00,
2013-07-31 23:25:00,64.1,63.0,29.92,West,277,0.0,0.0,96,0.01,,,0.27,0,weatherlink.com 1.10,2013-08-01 04:25:00,
2013-07-31 23:40:00,63.9,63.0,29.92,West,277,0.0,0.0,96,0.01,,,0.27,0,weatherlink.com 1.10,2013-08-01 04:40:00,
2013-07-31 23:55:00,63.5,62.0,29.92,West,276,0.0,0.0,95,0.01,,,0.27,0,weatherlink.com 1.10,2013-08-01 04:55:00,